Weather History for KJDN - October, 2011

Change the Weather History Date:

Friday, October 7, 2011

  Actual Average Record
Temperature  
Mean Temperature 53 °F 48 °F  
Max Temperature 57 °F 63 °F 87 °F (1980)
Min Temperature 49 °F 33 °F 12 °F (2000)
Degree Days  
Heating Degree Days 12 17  
Month to date heating degree days 16 112  
Since 1 July heating degree days 188 438  
Cooling Degree Days 0 0  
Month to date cooling degree days 12 0  
Year to date cooling degree days 494 420  
Growing Degree Days 2 (Base 50)    
Moisture  
Dew Point 49 °F    
Average Humidity 87    
Maximum Humidity 100    
Minimum Humidity 74    
Precipitation  
Precipitation 1.03 in 0.03 in 1.42 in (1985)
Month to date precipitation 1.05 0.20  
Year to date precipitation 15.75 11.33  
Snow  
Snow 0.00 in - - ()
Month to date snowfall 0.0  
Since 1 July snowfall 0.0  
Since 1 September snowfall 0.0  
Snow Depth 0.00 in    
Sea Level Pressure  
Sea Level Pressure 29.48 in    
Wind  
Wind Speed 19 mph (NW)    
Max Wind Speed 31 mph    
Max Gust Speed 39 mph    
T = Trace of Precipitation, MM = Missing Value Source: NWS Daily Summary

Daily Weather History Graph

Daily Weather History Graph

Search for Another Location

Airport or City:

Trip Planner

Search our weather history database for the weather conditions in past years. The results will help you decide how hot, cold, wet, or windy it might be!

Date:

Astronomy

Oct. 07, 2011 Rise Set
Actual Time 7:14 AM MDT 6:35 PM MDT
Civil Twilight 6:44 AM MDT 7:06 PM MDT
Nautical Twilight 6:08 AM MDT 7:41 PM MDT
Astronomical Twilight 5:32 AM MDT 8:17 PM MDT
Moon 4:32 PM MDT (10/7) 2:51 AM MDT (10/7)
Length of Visible Light 12h 22m
Length of Day
11h 21m
Waxing Gibbous, 84% of the Moon is Illuminated
Oct 7
Waxing Gibbous
Oct 11
Full
Oct 19
Last Quarter
Oct 26
New
Nov 2
First Quarter

Hourly Weather History & Observations

Time (MDT) Temp. Dew Point Humidity Pressure Visibility Wind Dir Wind Speed Gust Speed Precip Events Conditions
12:48 AM 55.0 °F 53.1 °F 93% 29.39 in - WNW 9.2 mph - 0.01 in   Unknown
1:48 AM 55.9 °F 54.0 °F 93% 29.34 in - WNW 11.5 mph - N/A   Unknown
2:48 AM 55.9 °F 54.0 °F 93% 29.30 in - NW 15.0 mph - N/A   Unknown
3:48 AM 55.9 °F 55.0 °F 97% 29.31 in - NW 13.8 mph - 0.07 in   Unknown
4:48 AM 55.9 °F 55.0 °F 97% 29.27 in - NNW 11.5 mph - 0.11 in   Unknown
5:48 AM 55.9 °F 55.0 °F 97% 29.26 in - North 11.5 mph - 0.08 in   Unknown
6:48 AM 54.0 °F 53.1 °F 97% 29.24 in - NNW 19.6 mph 27.6 mph 0.06 in   Unknown
7:48 AM 53.1 °F 51.1 °F 93% 29.25 in - NW 17.3 mph 27.6 mph 0.14 in   Unknown
8:48 AM 51.1 °F 50.0 °F 96% 29.27 in - NW 24.2 mph 34.5 mph 0.04 in   Unknown
9:48 AM 51.1 °F 50.0 °F 96% 29.29 in - NW 23.0 mph 31.1 mph 0.15 in   Unknown
10:48 AM 51.1 °F 48.9 °F 92% 29.32 in - NW 26.5 mph 31.1 mph 0.18 in   Unknown
11:48 AM 51.1 °F 48.0 °F 89% 29.36 in - WNW 21.9 mph 32.2 mph 0.08 in   Unknown
12:48 PM 51.1 °F 48.0 °F 89% 29.42 in - WNW 25.3 mph 33.4 mph 0.04 in   Unknown
1:48 PM 51.1 °F 48.0 °F 89% 29.45 in - WNW 29.9 mph 38.0 mph 0.07 in   Unknown
2:48 PM 51.1 °F 48.0 °F 89% 29.50 in - WNW 23.0 mph 31.1 mph 0.01 in   Unknown
3:48 PM 52.0 °F 48.0 °F 86% 29.54 in - WNW 20.7 mph 32.2 mph N/A   Unknown
4:48 PM 52.0 °F 48.0 °F 86% 29.58 in - WNW 26.5 mph 34.5 mph N/A   Unknown
5:48 PM 52.0 °F 46.9 °F 83% 29.63 in - WNW 21.9 mph 29.9 mph N/A   Unknown
6:48 PM 51.1 °F 46.9 °F 86% 29.69 in - WNW 17.3 mph 27.6 mph N/A   Unknown
7:48 PM 50.0 °F 46.0 °F 86% 29.75 in - WNW 19.6 mph 28.8 mph N/A   Unknown
8:48 PM 50.0 °F 45.0 °F 83% 29.80 in - WNW 17.3 mph 28.8 mph N/A   Unknown
9:48 PM 50.0 °F 44.1 °F 80% 29.85 in - WNW 15.0 mph - N/A   Unknown
10:48 PM 50.0 °F 43.0 °F 77% 29.88 in - NW 19.6 mph - N/A   Unknown
11:48 PM 50.0 °F 43.0 °F 77% 29.91 in - NW 18.4 mph 27.6 mph N/A   Unknown